Flag for France Weather past 2 weeks in Strasbourg, France

Now
61 °F

Clear.


Feels Like: 61 °F
Forecast: 52 / 71 °F
Wind: 3 mph from North

Location: Strasbourg Airport

Current Time: Oct 1, 2014 at 9:23:42 PM

Latest Report: Oct 1, 2014 at 9:00 PM


Visibility: N/A

Pressure: 30.33 "Hg

Humidity: 88%

Dew point: 57 °F

Location of StrasbourgLocation

Historic Weather in Strasbourg — Graph

°F

Strasbourg temperature yesterday

Maximum temperature yesterday: 70 °F (at 1:30 PM)
Minimum temperature yesterday: 57 °F (at 11:30 PM)
Average temperature yesterday: 64 °F

Past Weeks' High & Low Weather Summary

 TemperatureHumidityPressure
High79 °F (Sep 19, 1:30 PM)100% (Sep 17, 3:00 AM)30.36 "Hg (Sep 17, 3:00 AM)
Low41 °F (Sep 23, 2:30 AM)46% (Sep 26, 5:00 PM)29.83 "Hg (Sep 17, 4:00 PM)
Average61 °F82%30.11 "Hg
* Reported Sep 16 8:00 PM — Oct 1 8:00 PM, Strasbourg, Weather by CustomWeather, © 2014

Note: Actual official high and low records may vary slightly from our data, if they occured in-between our weather recording intervals... More about our weather records

Advertising

Strasbourg weather history for previous 24 hours

 ConditionsComfort  
Time TempWeatherWind HumidityBarometerVisibility
8:00 PM
Oct 1
63 °FClear.5 mph83%30.33 "HgN/A
7:30 PM64 °FLight rain. Clear.5 mph83%30.30 "HgN/A
7:00 PM68 °FClear.3 mph73%30.30 "HgN/A
6:30 PM70 °FClear.6 mph69%30.30 "HgN/A
6:00 PM72 °FPartly sunny.6 mph65%30.30 "HgN/A
5:30 PM70 °FPartly sunny.6 mph69%30.30 "HgN/A
5:00 PM70 °FPassing clouds.8 mph69%30.30 "HgN/A
4:30 PM73 °FScattered clouds.8 mph53%30.30 "HgN/A
4:00 PM75 °FPassing clouds.2 mph50%30.30 "HgN/A
3:30 PM73 °FPassing clouds.3 mph53%30.30 "HgN/A
3:00 PM73 °FPartly sunny.3 mph57%30.30 "HgN/A
2:30 PM73 °FPassing clouds.6 mph57%30.30 "HgN/A
2:00 PM73 °FPassing clouds.3 mph61%30.30 "HgN/A
1:30 PM72 °FPassing clouds.5 mph65%30.33 "HgN/A
1:00 PM70 °FPassing clouds.5 mph73%30.33 "HgN/A
12:30 PM70 °FPassing clouds.5 mph73%30.33 "HgN/A
12:00 PM68 °FPassing clouds.3 mph78%30.33 "HgN/A
11:30 AM68 °FPassing clouds.2 mph73%30.33 "HgN/A
11:00 AM66 °FClear.2 mph78%30.33 "HgN/A
10:30 AM64 °FClear.No wind83%30.33 "HgN/A
10:00 AM63 °FClear.No wind88%30.33 "HgN/A
9:30 AM59 °FClear.No wind94%30.33 "HgN/A
9:00 AM55 °FPassing clouds.2 mph100%30.33 "HgN/A
8:30 AM54 °FPartly sunny.No wind94%30.30 "HgN/A
8:00 AM54 °FPassing clouds.1 mph94%30.30 "HgN/A
7:30 AM54 °FPartly cloudy.No wind94%30.30 "HgN/A
7:00 AM54 °FOvercast.2 mph94%30.30 "HgN/A
6:30 AM52 °FPassing clouds.No wind100%30.30 "HgN/A
6:00 AM52 °FFog.No wind100%30.30 "Hg0 mi
5:30 AM52 °FFog.2 mph100%30.30 "Hg1 mi
5:00 AM52 °FDense fog.1 mph100%30.30 "Hg1 mi
4:30 AM52 °FFog.1 mph100%30.30 "Hg2 mi
4:00 AM54 °FLight fog.No wind94%30.30 "Hg4 mi
3:30 AM54 °FFog.No wind94%30.30 "Hg1 mi
3:00 AM54 °FFog.2 mph94%30.30 "Hg0 mi
2:30 AM55 °FFog.2 mph94%30.30 "Hg1 mi
2:00 AM55 °FFog.2 mph94%30.30 "Hg0 mi
1:30 AM55 °FLight fog.No wind94%30.30 "Hg2 mi
1:00 AM55 °FPassing clouds.No wind94%30.30 "Hg4 mi
12:30 AM55 °FClear.1 mph100%30.30 "Hg5 mi
12:00 AM57 °FPassing clouds.2 mph94%30.30 "HgN/A
11:30 PM
Sep 30
57 °FPassing clouds.No wind94%30.30 "Hg6 mi
10:30 PM59 °FClear.3 mph94%30.30 "HgN/A
10:00 PM61 °FPassing clouds.No wind94%30.30 "HgN/A
9:30 PM61 °FPassing clouds.1 mph94%30.30 "HgN/A
9:00 PM61 °FPassing clouds.No wind94%30.30 "HgN/A
Weather by CustomWeather, © 2014

See weather overviewHow to use our weather pages